Location: Casco Volunteer Fire Department
(44.5576°N, 87.6146°W)
Time: 05:26:14
(UTC+00:00)

BlueWalker 3 - Pass Details

Date: 15 March 2026
Orbit: 449 x 457 km, 53.2° (Epoch: 15 April)

Event Time Altitude Azimuth Distance (km) Brightness Sun altitude
Exits shadow 11:30:55 - 294° (WNW) 1,930 4.4 -6.5°
Reaches altitude 10° 11:31:47 10° 289° (WNW) 1,599 3.9 -6.3°
Maximum altitude 11:35:04 33° 224° (SW) 783 2.6 -5.8°
Drops below altitude 10° 11:38:18 10° 158° (SSE) 1,587 4.7 -5.2°
Sets 11:40:33 0° 149° (SSE) 2,455 5.9 -4.8°
